Grosse Ile, MI

7:56 AM EST on January 24, 2018 (GMT -0500)
Grosse Ile Municipal

Weather History for KONZ - April, 2014

Change the Weather History Date:

Tuesday, April 8, 2014

  Actual Average (KDTW) Record (KDTW)
Temperature  
Mean Temperature 47 °F -  
Max Temperature 55 °F 53 °F 79 °F (2001)
Min Temperature 39 °F 33 °F 11 °F (1982)
Degree Days  
Heating Degree Days 18    
Moisture  
Dew Point 35 °F    
Average Humidity 67    
Maximum Humidity 93    
Minimum Humidity 36    
Precipitation  
Precipitation 0.11 in - - ()
Sea Level Pressure  
Sea Level Pressure 29.60 in    
Wind  
Wind Speed 9 mph (WNW)    
Max Wind Speed 14 mph    
Max Gust Speed 18 mph    
Visibility 9 miles    
Events Rain    
Averages and records for this station are not official NWS values.
T = Trace of Precipitation, MM = Missing Value Source: NWS Daily Summary

Daily Weather History Graph

Daily Weather History Graph

Search for Another Location

Airport or City:

Trip Planner

Search our weather history database for the weather conditions in past years. The results will help you decide how hot, cold, wet, or windy it might be!

Date:

Astronomy

Apr. 08, 2014 Rise Set
Actual Time 7:03 AM EDT 8:06 PM EDT
Civil Twilight 6:34 AM EDT 8:34 PM EDT
Nautical Twilight 6:00 AM EDT 9:08 PM EDT
Astronomical Twilight 5:25 AM EDT 9:44 PM EDT
Moon 1:52 PM EDT (4/8) 3:21 AM EDT (4/8)
Length of Visible Light 13h 59m
Length of Day
13h 02m
Waxing Gibbous, 62% of the Moon is Illuminated
Apr 8
Waxing Gibbous
Apr 15
Full
Apr 22
Last Quarter
Apr 29
New
May 6
First Quarter

Hourly Weather History & Observations

Time (EDT) Temp. Windchill Dew Point Humidity Pressure Visibility Wind Dir Wind Speed Gust Speed Precip Events Conditions
12:14 AM 42.8 °F 36.6 °F 39.2 °F 87% 29.44 in 5.0 mi North 11.5 mph 18.4 mph N/A   Drizzle
12:34 AM 42.8 °F 36.2 °F 39.2 °F 87% 29.44 in 7.0 mi North 12.7 mph 17.3 mph 0.01 in   Light Drizzle
12:54 AM 42.8 °F 35.8 °F 39.2 °F 87% 29.44 in 5.0 mi North 13.8 mph - 0.01 in Rain Light Rain
1:15 AM 42.8 °F 37.0 °F 39.2 °F 87% 29.44 in 3.0 mi North 10.4 mph - 0.02 in Rain Light Rain
1:34 AM 42.8 °F 38.6 °F 39.2 °F 87% 29.44 in 4.0 mi NNW 6.9 mph - 0.04 in Rain Light Rain
1:54 AM 42.8 °F 38.0 °F 39.2 °F 87% 29.44 in 5.0 mi NNW 8.1 mph - 0.05 in Rain Light Rain
2:15 AM 42.8 °F 37.0 °F 39.2 °F 87% 29.44 in 4.0 mi NW 10.4 mph - 0.01 in Rain Light Rain
2:34 AM 41.0 °F 35.2 °F 39.2 °F 93% 29.44 in 4.0 mi NW 9.2 mph - 0.02 in Rain Light Rain
2:54 AM 41.0 °F 35.2 °F 39.2 °F 93% 29.44 in 3.0 mi NW 9.2 mph - 0.02 in Rain Rain
3:14 AM 41.0 °F 35.8 °F 39.2 °F 93% 29.44 in 4.0 mi NW 8.1 mph - 0.01 in Rain Light Rain
3:34 AM 42.8 °F 36.2 °F 39.2 °F 87% 29.44 in 4.0 mi NW 12.7 mph 17.3 mph 0.02 in   Drizzle
3:55 AM 41.0 °F 34.3 °F 39.2 °F 93% 29.45 in 4.0 mi NW 11.5 mph - 0.02 in Rain Light Rain
4:14 AM 41.0 °F 34.3 °F 37.4 °F 87% 29.45 in 4.0 mi WNW 11.5 mph - N/A Rain Rain
4:34 AM 41.0 °F 34.7 °F 37.4 °F 87% 29.46 in 5.0 mi WNW 10.4 mph - 0.01 in   Drizzle
4:54 AM 39.2 °F 32.5 °F 37.4 °F 93% 29.47 in 5.0 mi WNW 10.4 mph - 0.01 in Rain Light Rain
5:14 AM 39.2 °F 33.0 °F 37.4 °F 93% 29.48 in 7.0 mi WNW 9.2 mph - N/A   Overcast
5:34 AM 39.2 °F 32.5 °F 35.6 °F 87% 29.49 in 7.0 mi WNW 10.4 mph - N/A   Overcast
5:54 AM 39.2 °F 32.0 °F 35.6 °F 87% 29.50 in 10.0 mi WNW 11.5 mph - N/A   Overcast
6:14 AM 39.2 °F 32.5 °F 33.8 °F 81% 29.51 in 10.0 mi WNW 10.4 mph - N/A   Overcast
6:34 AM 39.2 °F 34.2 °F 33.8 °F 81% 29.52 in 10.0 mi WNW 6.9 mph - N/A   Mostly Cloudy
6:54 AM 39.2 °F 34.2 °F 33.8 °F 81% 29.52 in 10.0 mi WNW 6.9 mph - N/A   Mostly Cloudy
7:14 AM 39.2 °F 35.9 °F 33.8 °F 81% 29.54 in 10.0 mi West 4.6 mph - N/A   Overcast
7:34 AM 39.2 °F 35.0 °F 33.8 °F 81% 29.55 in 10.0 mi West 5.8 mph - N/A   Mostly Cloudy
7:54 AM 39.2 °F 35.9 °F 33.8 °F 81% 29.56 in 10.0 mi West 4.6 mph - N/A   Mostly Cloudy
8:14 AM 39.2 °F 35.0 °F 33.8 °F 81% 29.57 in 10.0 mi West 5.8 mph - N/A   Mostly Cloudy
8:34 AM 41.0 °F 37.1 °F 33.8 °F 76% 29.59 in 10.0 mi West 5.8 mph - N/A   Overcast
8:54 AM 42.8 °F 38.6 °F 33.8 °F 70% 29.59 in 10.0 mi WNW 6.9 mph - N/A   Scattered Clouds
9:14 AM 42.8 °F 38.6 °F 33.8 °F 70% 29.59 in 10.0 mi West 6.9 mph - N/A   Scattered Clouds
9:35 AM 44.6 °F 40.7 °F 33.8 °F 66% 29.60 in 10.0 mi WNW 6.9 mph - N/A   Scattered Clouds
9:54 AM 44.6 °F 38.8 °F 33.8 °F 66% 29.61 in 10.0 mi West 11.5 mph - N/A   Scattered Clouds
10:14 AM 46.4 °F 42.4 °F 33.8 °F 62% 29.61 in 10.0 mi WNW 8.1 mph - N/A   Clear
10:35 AM 46.4 °F 41.9 °F 33.8 °F 62% 29.62 in 10.0 mi WNW 9.2 mph - N/A   Clear
10:54 AM 48.2 °F - 33.8 °F 58% 29.63 in 10.0 mi WNW 8.1 mph - N/A   Clear
11:14 AM 48.2 °F - 33.8 °F 58% 29.64 in 10.0 mi WNW 10.4 mph - N/A   Clear
11:34 AM 48.2 °F - 33.8 °F 58% 29.64 in 10.0 mi NW 8.1 mph - N/A   Scattered Clouds
11:54 AM 51.8 °F - 33.8 °F 50% 29.65 in 10.0 mi NW 9.2 mph - N/A   Scattered Clouds
12:14 PM 51.8 °F - 35.6 °F 54% 29.65 in 10.0 mi WNW 5.8 mph - N/A   Clear
12:34 PM 53.6 °F - 33.8 °F 47% 29.65 in 10.0 mi WNW 9.2 mph - N/A   Clear
12:54 PM 53.6 °F - 33.8 °F 47% 29.65 in 10.0 mi WNW 6.9 mph - N/A   Clear
1:14 PM 55.4 °F - 32.0 °F 41% 29.65 in 10.0 mi WSW 4.6 mph - N/A   Clear
1:34 PM 55.4 °F - 32.0 °F 41% 29.65 in 10.0 mi North 3.5 mph - N/A   Clear
1:54 PM 55.4 °F - 28.4 °F 36% 29.65 in 10.0 mi Calm Calm - N/A   Clear
2:14 PM 53.6 °F - 33.8 °F 47% 29.65 in 10.0 mi SE 5.8 mph - N/A   Clear
2:35 PM 51.8 °F - 35.6 °F 54% 29.65 in 10.0 mi South 8.1 mph - N/A   Clear
2:54 PM 51.8 °F - 35.6 °F 54% 29.65 in 10.0 mi SSE 9.2 mph - N/A   Clear
3:14 PM 51.8 °F - 35.6 °F 54% 29.65 in 10.0 mi South 10.4 mph - N/A   Clear
3:35 PM 51.8 °F - 35.6 °F 54% 29.65 in 10.0 mi South 12.7 mph - N/A   Scattered Clouds
3:54 PM 51.8 °F - 37.4 °F 58% 29.65 in 10.0 mi South 11.5 mph - N/A   Scattered Clouds
4:14 PM 51.8 °F - 35.6 °F 54% 29.65 in 10.0 mi South 13.8 mph - N/A   Clear
4:35 PM 51.8 °F - 35.6 °F 54% 29.65 in 10.0 mi South 11.5 mph - N/A   Scattered Clouds
4:54 PM 48.2 °F - 33.8 °F 58% 29.65 in 10.0 mi South 9.2 mph - N/A   Clear
5:14 PM 50.0 °F - 33.8 °F 54% 29.65 in 10.0 mi South 8.1 mph - N/A   Scattered Clouds
5:34 PM 51.8 °F - 35.6 °F 54% 29.66 in 10.0 mi South 8.1 mph - N/A   Mostly Cloudy
5:54 PM 51.8 °F - 35.6 °F 54% 29.66 in 10.0 mi South 8.1 mph - N/A   Scattered Clouds
6:14 PM 46.4 °F 43.5 °F 35.6 °F 66% 29.66 in 10.0 mi South 5.8 mph - N/A   Overcast
6:34 PM 46.4 °F - 37.4 °F 71% 29.67 in 10.0 mi Calm Calm - N/A   Overcast
6:54 PM 48.2 °F - 37.4 °F 66% 29.67 in 10.0 mi Calm Calm - N/A   Mostly Cloudy
7:14 PM 48.2 °F - 39.2 °F 71% 29.68 in 10.0 mi Calm Calm - N/A   Mostly Cloudy
7:34 PM 50.0 °F - 35.6 °F 58% 29.68 in 10.0 mi Calm Calm - N/A   Mostly Cloudy
7:54 PM 55.4 °F - 33.8 °F 44% 29.69 in 10.0 mi NW 8.1 mph - N/A   Mostly Cloudy
8:14 PM 55.4 °F - 32.0 °F 41% 29.70 in 10.0 mi WNW 5.8 mph - N/A   Overcast
8:54 PM 55.4 °F - 33.8 °F 44% 29.72 in 10.0 mi WNW 6.9 mph - N/A   Mostly Cloudy
9:14 PM 55.4 °F - 33.8 °F 44% 29.73 in 10.0 mi WNW 5.8 mph - N/A   Mostly Cloudy
9:34 PM 55.4 °F - 33.8 °F 44% 29.73 in 10.0 mi West 6.9 mph - N/A   Overcast
9:55 PM 55.4 °F - 33.8 °F 44% 29.74 in 10.0 mi WNW 5.8 mph - N/A   Overcast
10:14 PM 53.6 °F - 33.8 °F 47% 29.75 in 10.0 mi WNW 4.6 mph - N/A   Overcast
10:34 PM 51.8 °F - 33.8 °F 50% 29.76 in 10.0 mi NE 13.8 mph 18.4 mph N/A   Overcast
10:54 PM 48.2 °F - 35.6 °F 62% 29.77 in 10.0 mi NNE 10.4 mph - N/A   Overcast
11:14 PM 48.2 °F - 35.6 °F 62% 29.77 in 10.0 mi NE 11.5 mph - N/A   Mostly Cloudy
11:34 PM 46.4 °F 41.9 °F 35.6 °F 66% 29.78 in 10.0 mi NE 9.2 mph - N/A   Mostly Cloudy
11:54 PM 46.4 °F 42.4 °F 35.6 °F 66% 29.79 in 10.0 mi NE 8.1 mph - N/A   Overcast